AMX185 KGTF-CYXE

Flight info

Callsign AMX185
Flight time 0h 42m
Altitude 37000
Route RAWZY Q827 ITREK Q838 SEFFY DCT CAREN CAREN4
Aircraft B738/M-SDE2E3FGHIRWXY/LB1

Departure

Time 2026-04-25 03:20
Airport Great Falls International Airport (KGTF)

Arrival

Time 2026-04-25 04:02
Airport Saskatoon John G. Diefenbaker International Airport (CYXE)
Time Latitude Longitude Altitude Speed Heading
2026-04-25 03:17 47.47917 -111.37199 3675 ft 0 kts 226°
2026-04-25 03:19 47.47910 -111.37229 3676 ft 9 kts 262°
2026-04-25 03:19 47.47950 -111.37274 3675 ft 9 kts 354°
2026-04-25 03:19 47.48267 -111.37288 3672 ft 91 kts 357°
2026-04-25 03:19 47.49182 -111.37313 3654 ft 170 kts 358°
2026-04-25 03:20 47.50462 -111.37286 4458 ft 184 kts 10°
2026-04-25 03:20 47.51555 -111.36403 5577 ft 194 kts 40°
2026-04-25 03:20 47.52336 -111.34766 6349 ft 204 kts 55°
2026-04-25 03:20 47.53072 -111.32891 6900 ft 215 kts 50°
2026-04-25 03:21 47.54023 -111.31232 7418 ft 217 kts 38°
2026-04-25 03:21 47.55200 -111.29697 7946 ft 234 kts 34°
2026-04-25 03:21 47.56509 -111.28120 8463 ft 252 kts 34°
2026-04-25 03:21 47.57897 -111.26452 8976 ft 263 kts 33°
2026-04-25 03:22 47.59301 -111.24738 9486 ft 267 kts 33°
2026-04-25 03:22 47.60755 -111.22955 9995 ft 273 kts 33°
2026-04-25 03:22 47.62214 -111.21162 10496 ft 274 kts 33°
2026-04-25 03:22 47.63688 -111.19339 11043 ft 284 kts 33°
2026-04-25 03:23 47.65254 -111.17432 11589 ft 301 kts 33°
2026-04-25 03:23 47.66905 -111.15441 12124 ft 316 kts 33°
2026-04-25 03:23 47.68657 -111.13318 12681 ft 329 kts 34°
2026-04-25 03:23 47.70393 -111.11100 13201 ft 334 kts 35°
2026-04-25 03:24 47.72157 -111.08852 13736 ft 335 kts 34°
2026-04-25 03:24 47.73938 -111.06651 14259 ft 341 kts 33°
2026-04-25 03:24 47.75799 -111.04376 14774 ft 345 kts 33°
2026-04-25 03:24 47.77630 -111.02137 15293 ft 343 kts 34°
2026-04-25 03:25 47.79478 -110.99866 15803 ft 347 kts 34°
2026-04-25 03:25 47.81346 -110.97581 16306 ft 349 kts 35°
2026-04-25 03:25 47.83202 -110.95288 16803 ft 351 kts 36°
2026-04-25 03:25 47.85086 -110.92937 17293 ft 353 kts 36°
2026-04-25 03:26 47.86955 -110.90610 17777 ft 355 kts 36°
2026-04-25 03:26 47.88868 -110.88230 18264 ft 358 kts 37°
2026-04-25 03:26 47.90763 -110.85869 18733 ft 359 kts 37°
2026-04-25 03:26 47.92667 -110.83498 19252 ft 362 kts 37°
2026-04-25 03:27 47.94603 -110.81087 19762 ft 364 kts 37°
2026-04-25 03:27 47.96552 -110.78658 20276 ft 367 kts 37°
2026-04-25 03:27 47.98519 -110.76204 20793 ft 370 kts 37°
2026-04-25 03:27 48.00471 -110.73767 21294 ft 374 kts 37°
2026-04-25 03:28 48.02487 -110.71246 21811 ft 376 kts 37°
2026-04-25 03:28 48.04480 -110.68748 22320 ft 379 kts 37°
2026-04-25 03:28 48.06513 -110.66200 22835 ft 383 kts 37°
2026-04-25 03:28 48.08549 -110.63646 23348 ft 386 kts 37°
2026-04-25 03:29 48.10598 -110.61071 23859 ft 389 kts 37°
2026-04-25 03:29 48.12660 -110.58478 24378 ft 392 kts 37°
2026-04-25 03:29 48.14774 -110.55816 24914 ft 395 kts 37°
2026-04-25 03:29 48.16869 -110.53173 25441 ft 399 kts 37°
2026-04-25 03:30 48.19004 -110.50475 25983 ft 402 kts 37°
2026-04-25 03:30 48.21138 -110.47776 26522 ft 403 kts 37°
2026-04-25 03:30 48.23270 -110.45074 27065 ft 403 kts 37°
2026-04-25 03:30 48.25377 -110.42400 27606 ft 402 kts 37°
2026-04-25 03:31 48.27537 -110.39656 28162 ft 401 kts 37°
2026-04-25 03:31 48.29675 -110.36934 28716 ft 400 kts 37°
2026-04-25 03:31 48.31817 -110.34203 29276 ft 400 kts 37°
2026-04-25 03:31 48.33936 -110.31499 29826 ft 400 kts 37°
2026-04-25 03:32 48.36046 -110.28806 30379 ft 400 kts 37°
2026-04-25 03:32 48.38182 -110.26077 30941 ft 400 kts 37°
2026-04-25 03:32 48.40279 -110.23398 31369 ft 399 kts 37°
2026-04-25 03:32 48.42390 -110.20701 31696 ft 396 kts 37°
2026-04-25 03:33 48.44463 -110.18052 31875 ft 398 kts 37°
2026-04-25 03:33 48.46590 -110.15329 31937 ft 398 kts 37°
2026-04-25 03:33 48.50730 -110.10006 31965 ft 391 kts 37°
2026-04-25 03:34 48.54852 -110.04703 31978 ft 390 kts 37°
2026-04-25 03:34 48.58968 -109.99407 31973 ft 391 kts 37°
2026-04-25 03:35 48.63105 -109.94057 31976 ft 390 kts 37°
2026-04-25 03:35 48.67207 -109.88741 31973 ft 390 kts 37°
2026-04-25 03:36 48.71325 -109.83398 31977 ft 391 kts 37°
2026-04-25 03:36 48.75444 -109.78040 31964 ft 390 kts 37°
2026-04-25 03:37 48.79567 -109.72662 31944 ft 390 kts 37°
2026-04-25 03:37 48.83642 -109.67330 31946 ft 388 kts 36°
2026-04-25 03:38 48.87728 -109.61975 31937 ft 389 kts 36°
2026-04-25 03:38 48.91811 -109.56613 31940 ft 388 kts 37°
2026-04-25 03:39 48.95854 -109.51176 31932 ft 390 kts 40°
2026-04-25 03:39 48.99263 -109.44714 31923 ft 396 kts 54°
2026-04-25 03:40 49.01552 -109.37003 31922 ft 403 kts 69°
2026-04-25 03:40 49.02611 -109.28552 31921 ft 408 kts 81°
2026-04-25 03:41 49.03192 -109.19978 31922 ft 409 kts 81°
2026-04-25 03:41 49.03866 -109.11428 31905 ft 408 kts 79°
2026-04-25 03:42 49.04995 -109.02991 31899 ft 408 kts 68°
2026-04-25 03:42 49.07410 -108.95029 31883 ft 425 kts 54°
2026-04-25 03:43 49.11175 -108.87791 31874 ft 442 kts 41°
2026-04-25 03:43 49.25401 -108.70846 31863 ft 457 kts 28°
2026-04-25 03:44 49.43747 -108.57065 31838 ft 453 kts 16°
2026-04-25 03:44 49.62425 -108.45406 31837 ft 455 kts 23°
2026-04-25 03:45 49.71128 -108.37483 32157 ft 458 kts 29°
2026-04-25 03:45 49.79412 -108.27919 32511 ft 464 kts 36°
2026-04-25 03:45 49.87250 -108.17445 33026 ft 466 kts 38°
2026-04-25 03:45 49.95026 -108.07159 33696 ft 463 kts 36°
2026-04-25 03:46 50.03286 -107.97277 34431 ft 462 kts 33°
2026-04-25 03:46 50.11757 -107.88133 35189 ft 462 kts 31°
2026-04-25 03:46 50.20288 -107.79311 35947 ft 462 kts 32°
2026-04-25 03:46 50.28899 -107.70303 36706 ft 462 kts 32°
2026-04-25 03:47 50.47511 -107.57028 36792 ft 461 kts 13°
2026-04-25 03:47 50.67542 -107.50506 36748 ft 454 kts 12°
2026-04-25 03:48 50.77238 -107.46485 35642 ft 450 kts 15°
2026-04-25 03:48 50.86703 -107.41581 33717 ft 449 kts 18°
2026-04-25 03:48 50.96148 -107.36197 31479 ft 450 kts 17°
2026-04-25 03:48 51.05561 -107.30875 29457 ft 446 kts 16°
2026-04-25 03:49 51.14962 -107.25840 27025 ft 444 kts 14°
2026-04-25 03:49 51.24302 -107.21103 24300 ft 443 kts 12°
2026-04-25 03:49 51.33752 -107.16400 23239 ft 427 kts 13°
2026-04-25 03:49 51.42672 -107.11931 21781 ft 415 kts 13°
2026-04-25 03:50 51.51355 -107.08129 20232 ft 402 kts 11°
2026-04-25 03:50 51.59995 -107.05120 18447 ft 392 kts
2026-04-25 03:50 51.68504 -107.02400 16477 ft 383 kts 11°
2026-04-25 03:50 51.76761 -106.99387 14642 ft 374 kts 13°
2026-04-25 03:51 51.84655 -106.95937 12726 ft 365 kts 15°
2026-04-25 03:51 51.92311 -106.92365 11839 ft 348 kts 17°
2026-04-25 03:51 51.96096 -106.89688 11967 ft 340 kts 37°
2026-04-25 03:51 51.97523 -106.86714 11977 ft 358 kts 62°
2026-04-25 03:52 51.98299 -106.82915 11955 ft 360 kts 73°
2026-04-25 03:52 51.98858 -106.79158 11952 ft 337 kts 72°
2026-04-25 03:52 51.99426 -106.75700 11953 ft 308 kts 76°
2026-04-25 03:52 51.99394 -106.72431 11710 ft 298 kts 102°
2026-04-25 03:53 51.98394 -106.69591 11079 ft 303 kts 132°
2026-04-25 03:53 51.96641 -106.67742 10108 ft 316 kts 154°
2026-04-25 03:53 51.94620 -106.66563 9076 ft 324 kts 165°
2026-04-25 03:53 51.92406 -106.66473 8013 ft 330 kts 194°
2026-04-25 03:54 51.90424 -106.68041 6961 ft 326 kts 224°
2026-04-25 03:54 51.89227 -106.70856 6172 ft 307 kts 257°
2026-04-25 03:54 51.89154 -106.74026 5951 ft 268 kts 291°
2026-04-25 03:54 51.90051 -106.76292 5938 ft 230 kts 325°
2026-04-25 03:55 51.91336 -106.77379 5956 ft 203 kts 345°
2026-04-25 03:55 51.92657 -106.77436 5919 ft 184 kts
2026-04-25 03:55 51.93834 -106.77007 5936 ft 170 kts
2026-04-25 03:55 51.94961 -106.76631 5967 ft 170 kts
2026-04-25 03:56 51.96119 -106.76256 5980 ft 177 kts
2026-04-25 03:56 51.97252 -106.75554 5919 ft 185 kts 38°
2026-04-25 03:56 51.97866 -106.73762 6001 ft 191 kts 67°
2026-04-25 03:56 51.98280 -106.71753 5994 ft 194 kts 59°
2026-04-25 03:57 51.98925 -106.69828 5896 ft 202 kts 52°
2026-04-25 03:57 51.99671 -106.67921 5486 ft 207 kts 51°
2026-04-25 03:57 52.00432 -106.66006 4936 ft 206 kts 51°
2026-04-25 03:57 52.01208 -106.64158 4463 ft 199 kts 43°
2026-04-25 03:58 52.02230 -106.62868 4003 ft 181 kts 12°
2026-04-25 03:58 52.03376 -106.62687 3643 ft 165 kts 349°
2026-04-25 03:58 52.04451 -106.63024 3354 ft 155 kts 339°
2026-04-25 03:58 52.05425 -106.63591 3270 ft 151 kts 336°
2026-04-25 03:59 52.06414 -106.64168 3278 ft 156 kts 338°
2026-04-25 03:59 52.07440 -106.64729 3277 ft 157 kts 338°
2026-04-25 03:59 52.08453 -106.65273 3273 ft 156 kts 338°
2026-04-25 03:59 52.09468 -106.65846 3275 ft 158 kts 337°
2026-04-25 04:00 52.10474 -106.66420 3193 ft 146 kts 338°
2026-04-25 04:00 52.11350 -106.66911 2928 ft 131 kts 338°
2026-04-25 04:00 52.12174 -106.67369 2809 ft 123 kts 337°
2026-04-25 04:00 52.12944 -106.67793 2845 ft 113 kts 336°
2026-04-25 04:01 52.13644 -106.68186 2861 ft 110 kts 336°
2026-04-25 04:01 52.14382 -106.68604 2607 ft 119 kts 337°
2026-04-25 04:01 52.15177 -106.69061 2122 ft 128 kts 336°
2026-04-25 04:01 52.15968 -106.69476 1745 ft 121 kts 336°
2026-04-25 04:02 52.16793 -106.69950 1654 ft 117 kts 337°
2026-04-25 04:02 52.17417 -106.70319 1649 ft 74 kts 338°
2026-04-25 04:02 52.17670 -106.70455 1649 ft 20 kts 341°
2026-04-25 04:02 52.17691 -106.70414 1649 ft 7 kts 97°
2026-04-25 04:03 52.17655 -106.70160 1649 ft 37 kts 99°
2026-04-25 04:03 52.17585 -106.69865 1649 ft 21 kts 162°
2026-04-25 04:03 52.17547 -106.69859 1649 ft 0 kts 163°
2026-04-25 04:03 52.17381 -106.69750 1649 ft 31 kts 159°
2026-04-25 04:04 52.17196 -106.69635 1649 ft 28 kts 160°
2026-04-25 04:04 52.17056 -106.69548 1649 ft 18 kts 158°
2026-04-25 04:04 52.17008 -106.69488 1649 ft 3 kts 50°
2026-04-25 04:04 52.17021 -106.69448 1649 ft 4 kts 57°
2026-04-25 04:05 52.17035 -106.69412 1649 ft 2 kts 73°
2026-04-25 04:05 52.17032 -106.69374 1649 ft 3 kts 112°
2026-04-25 04:05 52.17017 -106.69338 1649 ft 4 kts 127°
2026-04-25 04:05 52.17006 -106.69315 1649 ft 0 kts 129°